Temperature
1 2 2 2 3 3 3 2 2 3 4 4 4 3 3 3 3 3 3 4 4 4 5 5 5 5 5 5 5 5 5 5 5 5 5 5 4 4 4 4 4 4 4 4
0 2 2 2 2 3 3 3 3 3 3 3 3 3 3 3 3 3 3 3 3 4 4 4 4 5 5 5 5 5 5 5 4 4 4 4 4 4 4 4 4 4 4 4
-1 1 1 0 1 2 2 2 3 2 3 3 2 2 2 2 2 3 3 3 3 3 3 4 4 4 4 4 4 4 4 4 4 4 4 4 4 4 3 3 3 3 3 3
-2 -1 -1 0 1 1 1 1 1 2 2 2 2 2 3 3 3 2 3 3 3 3 3 3 3 3 3 3 3 3 3 4 3 3 3 3 3 3 3 3 3 3 3 3
-2 -2 -1 -0 0 -0 0 0 1 1 1 1 2 2 2 2 2 2 3 3 2 3 3 3 3 3 3 3 3 3 3 3 3 3 3 3 3 3 2 2 2 2 2 2
-3 -2 -2 -1 -1 -0 -0 -0 -1 -0 0 0 1 0 0 2 2 2 2 2 2 2 2 2 2 2 2 2 2 2 2 2 2 2 2 2 2 2 2 2 2 2 2 2
-3 -3 -3 -2 -1 -0 -1 -1 -1 -1 -1 -0 -0 0 1 1 1 1 1 1 1 1 1 1 2 2 1 1 2 2 2 2 2 1 1 1 1 1 1 1 1 1 1 1
-4 -4 -3 -2 -2 -2 -2 -2 -2 -2 -1 -1 -1 -0 -0 -0 -0 -0 -0 -0 0 0 0 0 1 1 1 1 1 1 1 1 1 1 1 1 1 1 1 1 1 1 1 1
-4 -4 -3 -3 -3 -2 -2 -2 -2 -2 -2 -2 -2 -2 -1 -1 -1 -1 -1 -1 -1 -1 -1 -1 -1 -0 0 0 0 0 1 0 0 0 0 0 0 0 0 0 0 0 0 -0
-4 -4 -4 -3 -3 -3 -3 -3 -3 -3 -3 -2 -3 -3 -3 -3 -2 -2 -2 -1 -1 -1 -1 -2 -1 -1 -1 -1 -0 -0 -0 -0 -0 -0 -0 -0 -0 -0 -0 -0 -0 -0 -1 -1
-5 -5 -4 -4 -4 -4 -4 -4 -3 -3 -3 -3 -3 -3 -3 -3 -3 -3 -3 -2 -2 -2 -2 -2 -2 -2 -2 -1 -1 -1 -1 -1 -1 -1 -1 -1 -1 -1 -1 -1 -1 -1 -1 -1
-6 -5 -5 -5 -5 -5 -4 -4 -4 -4 -4 -4 -4 -4 -4 -4 -4 -4 -3 -3 -3 -3 -3 -3 -2 -2 -2 -2 -1 -1 -1 -1 -1 -1 -1 -1 -1 -1 -1 -1 -2 -2 -2 -2
-5 -5 -5 -5 -5 -5 -5 -5 -5 -5 -5 -4 -4 -4 -4 -4 -4 -4 -4 -4 -4 -4 -3 -3 -3 -3 -2 -2 -2 -2 -2 -2 -2 -2 -2 -2 -2 -2 -2 -2 -2 -2 -2 -2
-6 -6 -6 -6 -6 -5 -5 -5 -5 -5 -5 -5 -5 -5 -5 -5 -5 -5 -4 -4 -4 -4 -4 -4 -3 -3 -3 -3 -3 -3 -2 -2 -2 -2 -2 -2 -2 -2 -2 -2 -3 -3 -3 -3
-6 -6 -6 -6 -6 -6 -6 -6 -5 -5 -5 -5 -5 -5 -5 -5 -5 -5 -5 -5 -5 -5 -4 -4 -4 -4 -4 -4 -3 -3 -3 -3 -3 -3 -3 -3 -3 -3 -3 -3 -3 -3 -3 -3
-7 -6 -6 -6 -6 -6 -6 -6 -6 -6 -6 -6 -6 -6 -6 -6 -6 -6 -5 -5 -5 -5 -5 -5 -5 -4 -4 -4 -4 -4 -3 -3 -3 -3 -3 -3 -3 -3 -4 -4 -4 -4 -4 -4
-7 -7 -7 -7 -7 -7 -7 -7 -7 -7 -7 -7 -7 -7 -6 -6 -6 -6 -6 -6 -5 -5 -5 -5 -5 -5 -5 -4 -4 -4 -4 -4 -4 -4 -4 -4 -4 -4 -4 -4 -4 -4 -4 -4
-8 -8 -8 -8 -8 -8 -8 -8 -8 -8 -8 -8 -7 -7 -7 -7 -7 -7 -6 -6 -6 -6 -5 -5 -5 -5 -5 -5 -5 -5 -5 -5 -4 -4 -4 -4 -4 -4 -5 -5 -5 -5 -5 -5
-8 -8 -8 -8 -8 -8 -8 -8 -8 -8 -8 -8 -8 -8 -7 -7 -7 -7 -7 -7 -6 -6 -6 -6 -6 -6 -6 -6 -6 -5 -5 -5 -5 -5 -5 -5 -5 -5 -5 -5 -5 -5 -5 -5
-8 -9 -9 -9 -9 -9 -9 -9 -9 -9 -8 -8 -8 -8 -8 -8 -8 -8 -8 -7 -7 -7 -7 -7 -7 -7 -6 -6 -6 -6 -6 -6 -6 -6 -6 -6 -6 -6 -6 -6 -6 -6 -6 -6
-9 -9 -9 -9 -9 -9 -9 -9 -9 -9 -9 -9 -9 -9 -9 -9 -8 -8 -8 -8 -8 -8 -8 -8 -7 -7 -7 -7 -7 -7 -6 -6 -6 -6 -6 -6 -6 -6 -6 -6 -6 -6 -6 -6
-9 -9 -9 -9 -10 -10 -10 -9 -9 -9 -9 -9 -9 -9 -9 -9 -9 -8 -8 -8 -8 -8 -8 -8 -8 -8 -7 -7 -7 -7 -7 -7 -7 -7 -7 -7 -6 -6 -6 -7 -7 -7 -7 -7
-10 -10 -10 -10 -10 -10 -10 -10 -10 -10 -10 -10 -9 -9 -9 -9 -9 -9 -9 -9 -9 -9 -8 -8 -8 -8 -8 -8 -8 -8 -7 -7 -7 -7 -7 -7 -7 -7 -7 -7 -7 -7 -7 -7
-10 -10 -10 -10 -10 -10 -10 -10 -10 -10 -10 -10 -10 -10 -10 -10 -9 -9 -9 -9 -9 -9 -9 -9 -8 -8 -8 -8 -8 -8 -8 -8 -8 -8 -8 -8 -8 -8 -8 -8 -8 -7 -7 -7
-11 -11 -11 -11 -11 -11 -11 -11 -10 -10 -10 -10 -10 -10 -10 -10 -10 -10 -10 -9 -9 -9 -9 -9 -9 -9 -9 -9 -8 -8 -8 -8 -8 -8 -8 -8 -8 -8 -8 -8 -8 -8 -8 -8
-11 -11 -11 -11 -11 -11 -11 -11 -11 -11 -11 -11 -11 -10 -10 -10 -10 -10 -10 -10 -10 -10 -9 -9 -9 -9 -9 -9 -9 -9 -9 -9 -9 -9 -9 -9 -9 -8 -8 -8 -8 -9 -9 -9
-12 -12 -12 -12 -12 -12 -12 -12 -12 -11 -11 -11 -11 -11 -11 -10 -10 -10 -10 -10 -10 -10 -10 -10 -9 -9 -9 -9 -9 -9 -9 -9 -9 -9 -9 -9 -9 -9 -9 -9 -9 -9 -9 -9
Wind_Speed
7 6 4 6 8 7 7 7 7 8 7 8 6 5 4 3 2 2 2 2 2 2 2 3 4 4 5 5 6 7 7 7 7 6 6 6 6 5 5 5 5 5 4 4
6 5 4 6 7 9 9 8 8 7 7 5 4 1 1 2 3 4 4 4 3 3 3 3 5 5 5 6 6 6 7 6 6 6 6 6 6 6 5 5 4 4 4 4
5 4 3 4 5 5 5 3 5 8 8 5 3 3 4 5 5 6 6 5 4 3 3 3 4 5 6 6 6 6 6 6 6 6 6 6 6 6 6 5 5 4 4 4
3 1 4 3 1 1 3 2 3 3 5 4 5 5 4 3 4 5 5 5 4 4 3 3 3 4 4 5 6 6 6 5 6 6 6 6 6 6 6 5 5 5 4 4
1 2 3 4 4 3 3 4 4 4 6 6 4 3 4 3 2 4 4 4 4 4 3 3 3 4 5 5 6 6 6 5 6 7 7 6 6 6 5 5 5 4 4 4
2 2 3 4 8 7 2 4 5 6 6 6 4 3 5 5 3 2 2 1 1 2 2 2 2 4 5 6 6 6 5 5 5 6 6 6 6 5 4 5 4 4 3 3
2 3 3 6 10 5 1 4 7 7 6 5 4 5 5 3 3 2 1 1 2 3 2 2 2 4 5 5 5 5 4 4 5 5 5 5 5 4 5 4 4 4 3 2
0 1 3 8 7 3 4 6 6 6 5 4 4 3 3 3 3 3 3 2 2 3 2 2 2 4 4 4 3 4 5 4 4 4 4 4 5 4 4 5 4 4 3 2
1 2 4 6 5 5 5 5 6 6 6 4 4 4 4 3 3 3 3 3 2 3 3 2 2 3 4 2 4 5 4 4 3 3 3 4 4 4 4 4 4 4 3 3
2 3 5 7 8 8 7 6 6 5 5 4 4 3 3 3 3 4 3 3 3 4 3 2 2 2 2 3 4 5 5 3 3 3 3 3 3 3 4 4 4 4 4 4
2 5 7 7 9 9 9 8 7 7 6 5 4 4 3 3 3 3 3 3 3 3 3 2 2 2 2 3 4 5 4 3 3 3 3 2 2 2 3 3 5 6 5 5
3 5 5 8 10 10 9 9 8 8 8 7 5 3 3 3 2 2 2 3 3 3 3 2 2 2 2 2 3 5 3 3 2 2 2 2 2 1 0 1 2 4 5 5
4 6 6 7 8 8 8 8 8 7 6 6 6 4 3 3 3 3 3 3 2 2 2 2 2 2 2 1 2 3 3 2 2 2 2 2 2 2 1 0 1 1 3 4
7 6 5 7 7 9 8 8 7 7 7 6 5 5 5 4 4 4 4 3 3 3 2 2 3 2 1 1 2 2 2 1 2 2 2 2 2 2 2 2 1 1 1 2
9 7 5 6 7 8 8 8 8 8 8 7 6 6 6 5 5 4 4 3 3 3 3 2 2 2 2 1 2 1 1 1 1 1 1 1 1 1 1 1 1 1 1 1
9 7 7 7 8 9 9 8 8 8 8 7 7 7 6 5 5 5 4 4 3 3 3 2 2 2 1 1 1 1 0 1 1 2 2 2 2 1 1 1 1 1 1 1
8 8 9 9 9 8 8 7 7 7 7 7 7 6 6 6 6 6 6 5 3 3 3 3 3 2 2 1 1 0 0 1 1 1 1 1 1 1 1 1 1 1 2 2
6 6 6 6 6 7 7 7 7 7 7 6 6 6 6 6 5 5 5 5 5 5 5 4 3 3 3 2 1 1 0 0 0 1 1 1 1 1 1 1 1 2 2 3
8 8 8 8 7 6 6 6 6 6 6 6 6 6 5 5 5 5 5 5 5 5 5 5 5 4 4 4 3 1 1 0 0 0 1 1 1 1 1 1 2 2 3 3
9 8 8 8 8 7 7 6 6 6 6 6 5 5 6 6 5 5 4 4 3 3 4 5 4 3 3 3 3 1 1 1 1 1 1 1 1 2 2 2 2 3 3 3
9 8 8 8 8 8 7 7 6 6 7 6 5 5 5 5 5 4 3 4 4 4 4 5 4 3 3 3 3 1 1 1 1 1 2 2 2 2 2 3 3 3 3 3
8 7 8 7 7 7 7 6 6 6 6 6 6 5 5 5 5 4 3 3 4 6 5 4 3 5 5 5 2 2 2 2 2 2 2 2 2 3 3 3 3 4 4 4
7 7 7 7 7 7 7 6 6 5 6 6 6 6 5 5 4 4 5 4 4 6 5 4 6 7 7 4 2 2 2 3 3 3 3 3 3 3 3 4 4 4 4 4
7 7 7 7 6 6 6 7 7 6 5 5 5 5 5 4 4 3 4 7 8 8 5 6 8 8 7 3 2 2 3 3 3 3 3 3 3 3 3 4 4 4 4 4
6 6 6 6 6 6 6 7 6 6 6 5 5 5 5 4 4 5 5 6 8 8 5 7 9 8 5 3 3 3 3 3 3 3 3 3 3 3 3 3 4 4 4 4
5 5 5 5 5 5 5 5 5 6 6 6 6 5 5 4 5 5 4 5 6 7 5 4 5 5 4 4 4 4 3 4 4 4 4 4 4 4 4 4 5 4 4 5
6 5 5 5 5 6 6 5 6 6 6 6 7 6 6 5 5 5 5 5 5 5 5 4 4 4 4 4 4 4 4 4 4 4 4 4 4 4 4 5 4 4 4 5
Wind_Direction
265 268 258 249 241 235 232 223 223 239 245 260 258 250 239 231 242 247 250 233 212 201 204 193 182 179 178 175 172 164 160 163 169 163 153 150 151 156 155 154 159 157 152 151
279 261 261 271 254 236 236 236 239 250 262 278 280 278 250 217 219 237 242 235 227 221 211 199 190 185 181 178 177 167 165 167 162 153 148 149 148 145 143 143 145 146 151 151
276 276 301 271 266 242 220 220 223 243 260 283 291 267 245 239 233 229 231 228 222 222 213 212 208 194 187 183 171 164 165 164 160 155 152 157 153 146 149 153 150 151 158 157
274 302 224 246 275 252 219 273 267 267 296 296 273 266 260 242 226 239 237 229 224 218 210 209 201 193 182 169 161 160 160 162 161 157 155 156 152 153 157 158 161 164 169 169
227 232 264 302 326 316 260 281 310 299 309 311 306 321 311 299 262 249 235 234 226 217 204 185 182 176 161 159 159 157 160 164 166 160 156 156 157 161 163 162 164 167 173 174
215 236 248 301 310 310 259 271 325 327 306 308 329 298 289 310 311 321 317 238 181 157 135 144 167 156 152 157 156 163 167 165 160 158 159 164 170 170 165 166 168 167 171 181
226 235 268 316 322 343 142 282 321 319 313 312 283 263 286 319 336 345 6 73 106 119 125 142 146 138 149 155 167 171 157 149 148 153 156 164 167 167 163 162 160 166 171 190
221 240 289 334 351 5 296 308 324 333 331 322 312 324 353 7 15 29 46 59 85 100 92 93 123 133 147 165 162 140 137 141 149 154 159 155 153 160 164 162 162 172 171 190
242 252 308 340 340 329 329 331 332 336 337 349 353 357 9 19 27 31 53 55 66 93 80 54 77 126 146 160 137 131 132 140 150 147 147 154 158 166 171 171 172 182 182 192
317 318 336 344 352 351 352 348 340 340 346 1 359 0 12 21 27 30 32 51 68 85 85 58 50 92 136 138 135 133 136 140 142 140 142 150 161 174 177 181 183 188 192 199
301 316 338 353 352 346 348 352 355 358 3 7 12 8 9 17 21 28 24 33 66 89 91 62 50 60 77 120 128 130 135 140 141 148 155 153 157 181 188 203 200 193 198 197
306 316 320 319 334 343 351 355 356 1 4 4 10 17 16 17 16 33 47 54 63 67 68 53 56 53 50 92 121 126 130 138 150 152 153 155 152 127 68 192 213 217 219 218
315 320 322 320 335 349 355 353 354 360 360 358 8 18 24 22 20 35 45 49 56 61 58 53 57 46 25 63 107 126 141 150 150 154 160 164 168 168 172 62 74 197 217 227
343 346 344 345 341 347 352 354 2 6 5 9 17 22 26 28 29 33 34 33 43 51 47 49 55 33 3 65 95 103 122 147 161 167 167 170 176 183 180 179 196 274 256 234
353 350 333 333 353 358 359 6 14 12 12 16 21 22 22 22 19 16 19 27 37 41 35 41 45 6 351 68 104 116 132 156 164 168 168 164 166 169 163 164 187 229 284 288
334 345 356 4 6 3 4 9 11 5 5 9 14 12 10 13 13 12 14 22 32 19 10 18 13 346 358 50 70 73 81 144 149 162 163 154 149 149 151 159 176 207 247 268
349 353 354 354 356 359 1 1 359 358 359 3 3 2 6 14 16 13 9 10 15 6 1 4 357 357 10 31 49 46 46 122 117 139 156 162 164 169 179 188 208 230 256 278
351 346 344 344 346 350 354 357 359 360 357 354 358 5 7 9 7 360 356 3 12 10 1 356 359 4 4 5 12 11 38 123 156 174 179 181 189 192 197 222 242 259 272 283
356 356 358 358 355 353 352 353 354 353 352 357 4 4 360 357 354 352 354 2 3 354 345 351 359 5 360 354 357 4 10 5 319 225 217 234 245 233 238 246 256 265 273 279
356 357 358 358 357 356 351 349 351 354 353 355 1 3 1 354 350 352 360 356 341 323 323 337 348 349 342 336 342 343 327 300 270 255 250 242 243 252 254 260 265 269 272 275
348 351 353 354 351 350 348 347 351 351 349 353 356 353 346 341 341 344 352 343 333 333 337 340 345 335 329 327 333 332 310 291 276 261 256 257 260 261 262 266 270 272 273 276
339 342 344 345 346 343 341 343 345 345 349 351 349 348 347 344 344 342 336 319 318 332 338 332 329 325 328 330 334 325 309 295 285 275 264 259 258 260 263 266 268 273 275 276
333 335 337 337 335 331 335 342 343 344 345 344 344 341 336 329 330 332 328 327 327 329 331 321 322 325 329 337 330 316 308 300 289 277 268 261 259 258 259 264 268 271 273 276
333 335 334 332 332 338 341 339 338 339 335 332 334 333 331 329 327 325 314 319 330 330 327 322 327 327 329 332 320 311 302 297 291 283 276 272 268 266 266 268 271 274 275 278
332 331 334 338 340 336 333 334 336 336 336 334 331 331 329 322 315 317 321 323 327 330 326 325 328 327 329 316 306 298 293 286 283 283 276 274 272 270 270 269 269 271 274 275
329 329 326 323 323 325 328 331 331 331 332 330 328 328 327 325 321 319 318 320 322 324 325 318 318 320 318 309 301 296 291 293 296 291 281 278 275 273 272 272 272 273 275 276
330 330 330 332 335 334 330 327 325 325 325 323 319 320 322 322 321 320 319 318 318 318 315 313 313 313 311 308 303 299 296 292 289 287 283 277 273 271 271 270 272 272 273 274
Height
1440 1436 1436 1435 1435 1435 1437 1439 1443 1437 1434 1430 1429 1429 1429 1429 1429 1429 1429 1429 1429 1429 1430 1431 1432 1434 1435 1437 1439 1442 1444 1447 1450 1452 1455 1457 1460 1462 1464 1467 1469 1471 1473 1475
1440 1435 1435 1434 1432 1432 1432 1433 1433 1432 1431 1428 1428 1428 1427 1428 1428 1427 1427 1427 1428 1428 1429 1429 1430 1432 1433 1435 1437 1440 1442 1444 1447 1450 1452 1455 1457 1460 1462 1464 1467 1469 1471 1473
1443 1436 1435 1437 1434 1431 1430 1430 1431 1431 1429 1428 1427 1427 1426 1425 1425 1424 1424 1425 1425 1425 1426 1427 1428 1429 1431 1433 1435 1437 1440 1442 1444 1447 1449 1452 1454 1457 1459 1462 1464 1466 1468 1470
1446 1441 1444 1436 1431 1429 1428 1429 1430 1428 1426 1426 1425 1423 1423 1422 1421 1421 1421 1421 1422 1422 1423 1425 1426 1428 1429 1431 1433 1435 1437 1439 1442 1444 1446 1449 1451 1454 1456 1459 1462 1463 1465 1467
1448 1443 1438 1434 1432 1432 1431 1430 1429 1427 1425 1423 1422 1421 1420 1420 1419 1418 1418 1419 1419 1420 1421 1422 1424 1425 1427 1429 1431 1433 1435 1437 1439 1441 1444 1446 1448 1451 1454 1456 1458 1460 1463 1464
1447 1444 1442 1439 1433 1430 1430 1431 1429 1427 1425 1423 1421 1423 1420 1417 1417 1416 1416 1416 1417 1417 1419 1420 1421 1423 1424 1426 1428 1430 1432 1434 1437 1439 1441 1443 1446 1448 1451 1454 1455 1457 1459 1461
1448 1448 1443 1440 1434 1430 1436 1436 1431 1427 1424 1422 1421 1420 1418 1416 1415 1415 1414 1415 1415 1416 1416 1418 1419 1420 1422 1423 1425 1428 1430 1432 1434 1436 1438 1441 1443 1446 1448 1450 1452 1454 1455 1457
1449 1451 1449 1440 1436 1438 1437 1433 1430 1426 1424 1421 1419 1417 1416 1414 1414 1413 1413 1413 1414 1414 1415 1416 1418 1419 1420 1422 1424 1426 1428 1429 1432 1434 1436 1438 1440 1442 1445 1447 1448 1450 1451 1453
1451 1452 1447 1443 1441 1438 1435 1432 1430 1427 1424 1421 1418 1416 1415 1414 1413 1413 1413 1413 1413 1414 1414 1415 1417 1418 1419 1420 1422 1424 1426 1427 1429 1431 1433 1435 1437 1439 1441 1443 1445 1446 1447 1449
1451 1448 1446 1444 1441 1438 1435 1432 1430 1427 1424 1421 1419 1417 1415 1414 1414 1413 1413 1413 1413 1414 1414 1415 1417 1418 1419 1419 1421 1422 1424 1426 1427 1429 1431 1433 1435 1437 1438 1439 1441 1442 1443 1445
1452 1449 1446 1443 1441 1438 1435 1432 1429 1426 1424 1422 1419 1418 1416 1415 1414 1413 1413 1413 1414 1414 1414 1415 1416 1418 1418 1419 1420 1421 1422 1424 1425 1427 1428 1430 1432 1433 1435 1436 1437 1439 1440 1441
1455 1452 1450 1446 1442 1439 1436 1432 1430 1427 1424 1422 1420 1418 1417 1416 1415 1414 1413 1413 1414 1414 1415 1415 1416 1417 1418 1419 1419 1420 1421 1422 1423 1425 1426 1427 1428 1430 1432 1433 1435 1436 1437 1438
1455 1452 1450 1446 1443 1440 1437 1433 1430 1428 1425 1423 1421 1419 1417 1416 1415 1414 1414 1413 1414 1414 1415 1415 1416 1416 1417 1418 1419 1419 1420 1421 1422 1423 1424 1425 1426 1427 1428 1430 1431 1433 1434 1434
1455 1452 1448 1446 1443 1440 1437 1434 1431 1428 1426 1424 1421 1420 1418 1416 1415 1415 1414 1414 1414 1414 1415 1415 1416 1416 1417 1417 1418 1418 1419 1419 1420 1421 1422 1423 1424 1425 1426 1426 1427 1428 1430 1431
1454 1452 1449 1446 1443 1440 1437 1434 1431 1428 1426 1424 1422 1420 1419 1417 1416 1416 1415 1415 1415 1415 1415 1415 1415 1416 1416 1417 1417 1417 1417 1418 1418 1419 1420 1421 1422 1423 1424 1424 1425 1425 1426 1427
1454 1451 1449 1446 1443 1440 1438 1435 1432 1430 1427 1425 1423 1422 1420 1418 1417 1417 1416 1416 1415 1415 1415 1415 1415 1415 1415 1415 1415 1415 1415 1416 1416 1417 1418 1419 1420 1421 1421 1422 1422 1423 1423 1424
1454 1451 1449 1446 1443 1441 1439 1436 1434 1431 1429 1426 1424 1422 1421 1419 1418 1417 1417 1416 1416 1415 1415 1415 1414 1414 1414 1414 1414 1413 1413 1414 1414 1415 1416 1417 1418 1418 1419 1419 1420 1420 1420 1421
1456 1454 1451 1448 1445 1442 1439 1437 1434 1432 1429 1427 1425 1423 1421 1419 1418 1417 1417 1416 1415 1414 1414 1414 1414 1413 1413 1412 1412 1412 1412 1412 1413 1413 1414 1415 1415 1416 1416 1417 1417 1417 1417 1417
1456 1453 1450 1448 1445 1442 1439 1437 1434 1432 1429 1427 1425 1423 1421 1420 1419 1418 1416 1415 1414 1413 1413 1413 1412 1412 1411 1410 1410 1410 1410 1410 1411 1411 1412 1412 1413 1413 1413 1414 1414 1414 1414 1413
1455 1453 1450 1447 1445 1442 1439 1437 1434 1432 1429 1427 1425 1423 1421 1420 1419 1417 1416 1415 1414 1413 1412 1411 1411 1410 1409 1409 1408 1408 1408 1408 1408 1408 1409 1409 1410 1410 1410 1410 1410 1410 1410 1410
1455 1452 1449 1447 1444 1442 1440 1437 1434 1431 1429 1427 1425 1423 1421 1420 1419 1417 1415 1414 1413 1412 1411 1410 1409 1408 1408 1407 1407 1406 1406 1406 1406 1406 1406 1406 1406 1406 1406 1406 1406 1406 1406 1406
1455 1452 1449 1447 1444 1441 1439 1437 1434 1431 1429 1427 1425 1423 1421 1419 1418 1416 1415 1414 1412 1411 1410 1409 1408 1407 1406 1405 1405 1404 1404 1404 1403 1403 1403 1403 1403 1403 1402 1402 1402 1402 1402 1401
1454 1451 1449 1446 1443 1441 1439 1436 1434 1431 1429 1427 1424 1423 1421 1419 1417 1416 1414 1413 1411 1410 1408 1407 1406 1405 1404 1403 1403 1402 1401 1401 1400 1400 1400 1399 1399 1399 1398 1398 1398 1398 1397 1397
1453 1450 1448 1445 1443 1440 1437 1435 1433 1431 1428 1426 1424 1422 1420 1418 1416 1415 1413 1411 1409 1408 1406 1405 1404 1403 1402 1401 1400 1399 1398 1397 1397 1396 1396 1396 1395 1395 1394 1394 1393 1393 1392 1392
1451 1449 1446 1443 1441 1438 1436 1434 1431 1429 1427 1424 1422 1421 1419 1417 1415 1413 1411 1409 1407 1405 1404 1402 1401 1400 1399 1398 1397 1396 1395 1394 1393 1393 1392 1391 1391 1390 1390 1389 1389 1388 1388 1387
1449 1447 1444 1442 1440 1437 1435 1432 1430 1427 1425 1422 1420 1418 1416 1415 1413 1410 1408 1407 1405 1403 1401 1400 1399 1397 1396 1395 1394 1393 1392 1391 1390 1389 1388 1388 1387 1386 1385 1385 1384 1383 1383 1382
1447 1445 1442 1440 1438 1435 1433 1430 1428 1425 1423 1420 1418 1416 1414 1412 1410 1408 1406 1404 1402 1400 1399 1397 1396 1395 1393 1392 1391 1390 1389 1388 1387 1386 1385 1384 1383 1382 1381 1381 1380 1379 1378 1378